Location: Espelette
(43.3402°N, 1.4474°W)
Time: 16:36:00
(UTC+00:00)

SAR-Lupe-2 - Pass Details

Date: 19 May 2025
Orbit: 478 x 487 km, 98.1° (Epoch: 16 May)

Event Time Altitude Azimuth Distance (km) Brightness Sun altitude
Exits shadow 20:57:49 25° 148° (SSE) 1,009 4.6 -13.9°
Maximum altitude 20:59:44 62° 74° (ENE) 544 3.6 -14.1°
Drops below altitude 10° 21:03:16 10° 353° (N) 1,664 7.1 -14.5°
Sets 21:05:21 0° 351° (N) 2,549 8.2 -14.8°
